Total_Precipitation_Accumulation
0.07 0.08 0.09 0.11 0.12 0.14 0.18 0.26 0.32 0.34 0.39 0.45 0.54 0.61 0.89 1.13 1.25 1.41 1.57 1.79 1.97 2.17 2.25 2.47 2.88 3.15 3.34 3.48 3.73 4.00 4.40 4.81 4.96 4.80 4.76 4.80 4.74 4.61 4.29 4.15 4.29 4.37 4.13 4.16
0.10 0.11 0.10 0.11 0.11 0.12 0.17 0.25 0.34 0.40 0.41 0.45 0.63 0.74 0.94 1.39 1.56 1.53 1.57 1.56 1.61 2.05 2.28 2.55 2.91 3.09 3.05 3.23 3.50 3.89 4.37 4.73 4.66 4.81 5.08 5.11 5.04 4.54 4.31 4.25 4.32 4.16 3.89 3.82
0.11 0.10 0.07 0.09 0.11 0.14 0.17 0.21 0.29 0.37 0.51 0.50 0.65 1.12 1.24 1.51 1.66 1.51 1.45 1.46 1.42 1.62 1.95 2.14 2.37 2.58 2.78 3.19 3.62 3.97 4.31 4.46 4.51 4.77 4.95 4.71 4.60 4.23 4.23 4.31 4.25 4.02 3.86 3.80
0.09 0.09 0.07 0.10 0.12 0.13 0.19 0.18 0.20 0.30 0.51 0.67 0.75 1.47 1.70 1.86 1.76 1.44 1.45 1.50 1.60 1.72 1.81 1.96 2.04 2.36 2.75 3.17 3.76 4.20 4.24 4.31 4.20 4.40 4.59 4.47 4.17 4.01 3.98 4.02 3.82 3.73 3.61 3.53
0.13 0.10 0.11 0.10 0.10 0.11 0.15 0.15 0.18 0.28 0.42 0.67 0.80 1.26 1.74 1.81 1.75 1.38 1.28 1.47 1.70 1.68 1.74 1.98 1.95 2.17 2.46 2.87 3.30 3.74 4.10 4.19 4.04 4.04 4.18 4.36 4.19 3.95 3.78 3.67 3.62 3.57 3.56 3.39
0.13 0.11 0.11 0.12 0.12 0.12 0.13 0.17 0.27 0.40 0.63 1.06 0.83 0.95 1.42 1.69 1.58 1.29 1.28 1.40 1.57 1.75 1.76 1.89 2.18 2.25 2.40 2.69 3.08 3.36 3.58 3.59 3.60 3.60 3.68 3.83 3.92 3.91 3.71 3.54 3.56 3.51 3.41 3.30
0.23 0.23 0.18 0.14 0.14 0.14 0.15 0.30 0.76 1.19 1.46 1.26 0.85 0.93 1.34 1.31 1.11 1.02 1.10 1.36 1.63 1.93 1.91 1.91 2.11 2.24 2.34 2.45 2.65 2.85 2.93 3.01 3.03 3.07 3.07 3.09 3.25 3.35 3.26 3.22 3.32 3.35 3.26 3.19
0.34 0.33 0.23 0.19 0.16 0.16 0.19 0.33 0.81 1.10 1.22 1.12 1.03 1.24 1.34 1.08 0.94 0.95 1.04 1.23 1.55 1.72 1.72 1.80 1.89 1.84 1.86 1.92 2.06 2.23 2.33 2.39 2.38 2.47 2.60 2.63 2.85 2.93 2.97 3.14 3.04 3.10 3.06 3.07
0.21 0.21 0.20 0.20 0.20 0.19 0.27 0.36 0.39 0.62 0.76 1.16 1.37 1.48 1.36 1.04 1.18 1.16 1.26 1.31 1.32 1.37 1.40 1.41 1.44 1.50 1.63 1.66 1.74 1.85 1.96 2.01 1.97 2.05 2.24 2.29 2.37 2.56 2.74 2.90 2.76 2.59 2.68 2.62
0.14 0.18 0.19 0.16 0.16 0.20 0.28 0.42 0.55 0.82 1.13 1.34 1.49 1.76 1.93 1.71 1.65 1.54 1.65 1.79 1.49 1.21 1.21 1.25 1.22 1.28 1.32 1.38 1.52 1.68 1.78 1.97 2.02 2.05 2.15 2.05 2.17 2.30 2.49 2.58 2.41 2.42 2.57 2.59
0.13 0.16 0.21 0.22 0.21 0.25 0.38 0.48 0.58 0.75 0.89 1.22 1.65 1.88 1.60 1.80 1.84 1.75 1.61 1.60 1.45 1.10 1.00 1.09 1.03 1.06 1.15 1.23 1.37 1.53 1.80 2.02 2.02 1.89 2.00 2.06 2.06 2.21 2.29 2.30 2.21 2.34 2.48 2.67
0.17 0.17 0.22 0.26 0.26 0.25 0.34 0.50 0.60 0.81 0.92 1.03 1.33 1.63 1.21 1.41 1.41 1.28 1.30 1.15 1.07 1.00 0.82 0.92 0.97 0.93 0.99 1.06 1.19 1.38 1.61 1.81 1.86 1.80 1.84 2.02 2.16 2.19 2.17 2.12 2.15 2.19 2.22 2.29
0.18 0.24 0.39 0.60 0.55 0.38 0.35 0.37 0.44 0.54 0.72 0.86 1.21 1.52 1.08 1.14 1.22 1.18 1.12 1.08 0.93 0.99 0.90 0.86 0.97 1.02 1.00 1.02 1.15 1.34 1.42 1.67 1.91 1.93 1.98 2.15 2.12 2.03 2.05 2.26 2.37 2.29 2.26 2.27
0.17 0.22 0.35 0.65 0.68 0.55 0.43 0.42 0.42 0.47 0.64 0.68 0.81 1.20 1.18 1.21 1.25 1.29 1.19 1.00 0.88 0.92 0.99 0.92 0.94 0.98 0.92 0.99 1.14 1.30 1.41 1.59 1.80 2.02 2.14 2.26 2.14 2.12 2.19 2.32 2.44 2.41 2.32 2.33
0.17 0.18 0.22 0.33 0.43 0.43 0.40 0.40 0.40 0.43 0.49 0.63 0.74 0.92 1.09 1.11 1.17 1.32 1.19 1.04 1.01 0.92 0.93 0.96 0.92 0.86 0.84 0.87 0.98 1.20 1.45 1.65 1.79 2.04 2.15 2.24 2.29 2.30 2.37 2.38 2.44 2.42 2.32 2.32
0.23 0.25 0.28 0.38 0.46 0.46 0.41 0.40 0.36 0.36 0.34 0.42 0.64 0.93 0.93 0.89 0.96 1.13 1.14 1.22 1.23 1.13 0.96 0.88 0.88 0.91 0.93 0.87 0.90 0.99 1.22 1.50 1.69 1.91 2.05 2.12 2.25 2.41 2.44 2.41 2.45 2.43 2.44 2.48
0.30 0.36 0.47 0.52 0.56 0.64 0.65 0.51 0.49 0.49 0.46 0.54 0.80 0.96 0.81 0.81 0.85 0.93 1.01 1.16 1.15 1.11 1.19 1.17 1.07 1.14 1.06 1.04 1.05 1.08 1.17 1.42 1.65 1.83 1.95 2.07 2.22 2.33 2.34 2.28 2.41 2.51 2.47 2.39
0.35 0.45 0.51 0.55 0.74 1.03 0.78 0.50 0.45 0.48 0.55 0.54 0.64 0.71 0.69 0.74 0.77 0.89 1.04 1.05 1.00 0.92 0.98 1.15 1.23 1.27 1.25 1.18 1.25 1.26 1.32 1.45 1.65 1.86 1.99 2.07 2.22 2.25 2.28 2.28 2.23 2.24 2.26 2.23
0.34 0.50 0.61 0.69 0.83 0.86 0.76 0.61 0.59 0.62 0.72 0.57 0.58 0.65 0.72 0.80 0.90 1.07 0.96 0.92 0.98 0.92 1.00 1.06 1.12 1.20 1.36 1.38 1.40 1.45 1.57 1.70 1.73 1.86 2.03 2.18 2.25 2.25 2.25 2.26 2.19 2.20 2.21 2.15
0.38 0.50 0.69 0.76 1.03 1.14 0.93 0.68 0.68 0.81 1.25 0.85 0.73 0.84 0.94 0.94 1.24 1.34 0.99 1.03 1.14 0.97 0.95 1.05 1.14 1.19 1.34 1.48 1.55 1.58 1.68 1.85 1.85 1.91 2.05 2.14 2.21 2.30 2.23 2.32 2.40 2.38 2.29 2.23
0.71 0.75 0.78 0.82 1.09 1.21 0.85 0.67 0.81 1.53 1.74 1.05 0.94 1.02 1.12 1.16 1.17 1.10 0.97 1.14 1.28 1.09 1.02 0.97 1.08 1.34 1.45 1.53 1.67 1.74 1.70 1.74 1.79 1.94 2.07 2.15 2.24 2.33 2.30 2.36 2.43 2.45 2.39 2.42
1.07 1.06 1.00 1.09 1.45 1.62 0.97 0.89 1.29 1.52 1.20 1.11 1.08 1.06 1.08 1.05 1.00 0.95 0.91 1.03 1.19 1.23 1.28 1.32 1.41 1.52 1.55 1.60 1.77 1.90 1.93 1.87 1.96 2.05 2.05 2.16 2.32 2.16 2.15 2.40 2.49 2.52 2.53 2.47
1.19 1.27 1.35 1.42 1.58 1.44 1.29 1.31 1.34 1.24 1.30 1.24 1.12 1.10 1.08 1.07 1.06 1.07 1.02 0.97 1.09 1.28 1.33 1.38 1.45 1.47 1.56 1.67 1.78 2.00 2.05 2.02 2.03 2.12 2.16 2.20 2.26 2.36 2.41 2.45 2.52 2.49 2.43 2.37
1.36 1.24 1.51 1.73 1.69 1.50 1.52 1.46 1.39 1.34 1.36 1.28 1.18 1.22 1.17 1.21 1.34 1.32 1.26 1.21 1.12 1.14 1.19 1.25 1.40 1.46 1.63 1.84 1.98 2.19 2.21 2.15 2.18 2.28 2.38 2.38 2.33 2.38 2.54 2.67 2.64 2.53 2.37 2.40
1.62 1.61 1.83 2.14 2.06 1.80 1.63 1.44 1.34 1.27 1.22 1.16 1.16 1.23 1.27 1.25 1.37 1.41 1.50 1.51 1.43 1.33 1.34 1.44 1.61 1.73 1.84 1.95 2.02 2.19 2.34 2.42 2.50 2.54 2.55 2.57 2.57 2.60 2.68 2.64 2.58 2.57 2.50 2.44
1.67 1.93 2.29 2.47 2.08 1.90 1.83 1.62 1.53 1.33 1.22 1.19 1.20 1.20 1.26 1.27 1.35 1.34 1.44 1.59 1.59 1.62 1.69 1.68 1.69 1.85 1.95 1.97 2.06 2.20 2.45 2.70 2.91 2.85 2.71 2.74 2.80 2.82 2.75 2.75 2.57 2.42 2.31 2.23